Location: Sammaljoki
(61.2333°N, 23.1333°E)
Time: 17:42:32
(UTC+00:00)

Daily predictions for brighter satellites

Satellite Brightness Start Highest point End
(mag) Time Altitude Azimuth Time Altitude Azimuth Time Altitude Azimuth
Cosmos 2219 4.0 16:07:12 10° NW 16:12:33 38° NNE 16:17:56 10° E
Okean 1-7 4.1 16:11:20 10° N 16:14:55 25° ENE 16:18:29 10° ESE
Cosmos 405 4.3 16:13:46 10° N 16:16:37 22° NE 16:19:26 10° ESE
Cosmos 1340 4.3 16:14:41 10° ESE 16:16:49 15° E 16:18:57 10° NE
Cosmos 44 Rocket 3.2 16:12:06 10° WNW 16:16:51 75° NNE 16:21:37 10° ESE
Cosmos 1743 Rocket 3.6 16:14:47 10° SSW 16:19:10 85° WNW 16:23:33 10° NNE
Cosmos 921 Rocket 4.2 16:16:07 10° SSE 16:19:43 24° E 16:23:19 10° NE
Cosmos 1777 Rocket 4.4 16:14:37 10° NW 16:19:56 73° WSW 16:25:12 10° SSE
Cosmos 292 Rocket 4.0 16:16:03 10° S 16:20:40 49° ESE 16:25:17 10° NE
Cosmos 371 Rocket 4.4 16:17:11 10° WSW 16:21:49 43° NW 16:26:27 10° NNE
Envisat 3.9 16:17:06 10° S 16:22:05 55° WSW 16:27:08 10° NNW
Cosmos 1725 Rocket 4.2 16:16:14 10° SSE 16:22:09 50° E 16:28:08 10° NNE
COSMOS 2487 2.8 16:19:21 10° NNW 16:22:43 43° NE 16:26:02 10° ESE
Cosmos 1898 Rocket 3.8 16:19:00 10° NNW 16:24:04 49° NE 16:29:06 10° ESE
SJ 16-02 1.9 16:21:08 10° NNW 16:25:20 39° NE 16:29:30 10° ESE
SeaSat 1 3.3 16:21:02 10° NE 16:25:49 49° NW 16:30:34 10° WSW
Cosmos 1689 Rocket 3.5 16:24:08 10° N 16:27:00 41° WNW 16:29:53 10° SW
Cosmos 1992 Rocket 4.1 16:23:48 10° SSW 16:28:58 62° ESE 16:34:10 10° NE
Cosmos 2061 Rocket 4.1 16:22:55 10° S 16:29:14 65° E 16:35:31 10° NNE
IRS-1A Rocket 4.5 16:25:08 10° SE 16:30:26 50° ENE 16:35:46 10° NNW
GENESIS II 4.5 16:28:13 10° WSW 16:32:20 75° NNW 16:36:28 10° ENE
Cosmos 2297 3.9 16:27:26 10° SSW 16:32:55 54° ESE 16:38:24 10° NE
Cosmos 2285 Rocket 4.1 16:26:42 10° NW 16:33:06 89° NE 16:39:31 10° SSE
FREGAT/IRIS 3.8 16:31:07 10° ESE 16:33:15 20° ENE 16:35:24 10° N
Cosmos 1844 Rocket 3.7 16:27:54 10° W 16:33:16 42° NNW 16:38:40 10° NE
Cosmos 1633 2.5 16:31:04 10° S 16:34:40 72° ESE 16:38:19 10° NNE
NOSS 3-2 (A) 3.9 16:28:15 10° WNW 16:34:56 78° N 16:42:44 10° E
Tsikada Rocket 4.2 16:29:06 10° NNW 16:35:30 88° WSW 16:41:56 10° S
Cosmos 2263 Rocket 3.4 16:30:43 10° WNW 16:35:45 32° N 16:40:50 10° ENE
NOSS 3-2 (C) 3.9 16:29:18 10° W 16:35:55 75° N 16:43:29 11° E
Cosmos 1812 2.8 16:34:00 10° NNW 16:37:55 85° WSW 16:41:48 10° S
USA 234 3.5 16:32:14 10° E 16:38:44 63° S 16:45:14 10° WSW
Cosmos 1864 Rocket 4.5 16:33:02 10° S 16:39:04 61° E 16:45:07 10° NNE
Cosmos 2369 Rocket 3.1 16:35:36 10° SSE 16:40:19 28° ESE 16:45:04 10° NE
Aureole 2 Rocket 3.6 16:39:39 10° SE 16:41:16 15° ESE 16:42:00 14° E
Cosmos 1802 Rocket 4.1 16:35:30 10° S 16:41:50 81° ESE 16:48:18 10° NNE
HJ-1C 3.5 16:39:09 10° SE 16:42:21 49° ENE 16:45:35 10° N
Cosmos 1833 4.4 16:36:45 10° NW 16:42:35 80° SW 16:48:20 10° SSE
Timation 2 Rocket 4.2 16:35:55 10° NW 16:42:46 74° NE 16:49:41 10° SE
YAOGAN 1 2.8 16:40:32 10° SSE 16:44:52 78° WSW 16:49:15 10° NNW
USA 186 2.6 16:43:37 13° ESE 16:45:11 21° ENE 16:47:19 10° N
SJ-6B 3.6 16:42:17 10° ESE 16:45:35 30° ENE 16:48:57 10° N
SKYMED 2 3.6 16:41:22 10° NNE 16:45:42 59° ESE 16:50:01 10° S
SL-27 R/B 4.2 16:42:49 10° NW 16:45:55 34° WSW 16:48:59 10° S
USA 229 DEB 4.3 16:41:40 10° S 16:47:36 36° SE 16:53:50 10° ENE
USA 229 4.3 16:41:48 10° S 16:47:42 36° SE 16:53:55 10° ENE
Cosmos 1633 Rocket 3.2 16:45:31 10° S 16:49:42 48° E 16:53:54 10° NNE
CZ-2D R/B 3.4 16:49:02 10° SSE 16:52:56 78° WSW 16:56:52 10° NNW
Cosmos 1862 3.2 16:50:15 10° S 16:54:13 70° E 16:58:12 10° NNE
Cosmos 1238 Rocket 4.2 16:48:22 10° S 16:54:59 89° ESE 17:01:35 10° NNE
NOSS 3-1 (A) 4.4 16:50:14 10° S 16:55:00 27° ESE 17:00:06 11° ENE
Cosmos 2016 Rocket 4.0 16:49:29 10° S 16:55:37 85° ESE 17:01:51 10° NNE
Cosmos 1666 Rocket 3.6 16:51:54 10° S 16:56:20 63° E 17:00:47 10° NNE
Cosmos 1933 Rocket 4.3 16:53:16 10° SSE 16:57:05 30° E 17:00:55 10° NNE
CENTAUR R/B 3.0 16:52:39 10° W 16:59:44 76° N 17:06:54 15° E
MONITOR-E 4.3 16:59:44 11° SE 17:02:09 37° ENE 17:04:42 10° N
USA 116 3.9 16:59:15 10° NNE 17:02:53 48° ESE 17:06:59 10° S
Ariane Rocket 3.0 17:00:22 10° SSE 17:05:28 76° ENE 17:10:36 10° NNW
SJ-11-01 4.2 17:00:56 10° SSE 17:05:36 71° ENE 17:10:17 10° NNW
ARGOS 3.3 17:01:23 10° SE 17:06:40 56° ENE 17:12:00 10° NNW
Terra 3.9 17:04:51 10° NE 17:06:42 12° NNE 17:08:38 10° N
Cosmos 1346 Rocket 3.5 17:03:50 10° SSE 17:07:22 31° E 17:10:54 10° NNE
CSL-04 Rocket 4.3 17:02:48 10° S 17:08:17 63° WSW 17:13:43 10° NNW
ATLAS 3B R/B 2.8 17:04:13 10° W 17:10:52 71° N 17:16:19 17° E
Cosmos 2233 Rocket 3.9 17:04:52 10° S 17:10:58 66° E 17:17:09 10° NNE
Cosmos 990 Rocket 3.9 17:06:45 10° NNW 17:11:57 81° NE 17:17:07 10° SE
Meteor 1-18 Rocket 4.3 17:07:16 10° NNW 17:13:14 67° ENE 17:19:05 10° SSE
Cosmos 2297 Rocket 2.6 17:10:54 10° NW 17:16:28 50° NNE 17:20:26 19° ESE
H-2A R/B 2.1 17:13:05 10° SSE 17:18:28 70° ENE 17:23:56 10° NNW
Cosmos 1937 Rocket 3.5 17:14:31 10° NNW 17:19:50 74° NE 17:25:02 10° SE
Okean 3 4.2 17:16:24 10° N 17:20:17 33° ENE 17:22:22 21° ESE
MOS 1 4.2 17:16:27 10° SSE 17:22:08 79° ENE 17:27:49 10° NNW
ARGOS Delta rocket 3.9 17:18:09 10° SE 17:22:22 47° ENE 17:26:44 10° N
Resurs 1-3 4.1 17:21:33 18° ESE 17:24:28 40° ENE 17:28:36 10° N
Cosmos 2278 Rocket 3.0 17:22:02 10° WSW 17:27:33 50° NNW 17:33:06 10° NE
Sich 1 3.5 17:23:21 10° SSW 17:27:36 61° WNW 17:31:51 10° N
Okean 1 3.2 17:23:53 10° NNW 17:27:56 67° ENE 17:31:55 10° SSE
Cosmos 2242 Rocket 3.9 17:25:48 10° NNW 17:30:20 71° W 17:34:52 10° S
Lacrosse 5 rocket 2.0 17:26:45 10° WSW 17:31:08 51° S 17:33:40 24° ESE
Cosmos 1867 3.9 17:27:02 10° W 17:32:29 62° NNW 17:36:27 19° ENE
Lacrosse 4 Rocket 1.5 17:29:03 10° SW 17:33:22 86° NW 17:36:56 16° NE
USA 238 DEB 3.8 17:26:26 10° WNW 17:33:29 88° SSW 17:38:52 20° ESE
USA 238 3.8 17:26:33 10° WNW 17:33:35 88° SSW 17:38:57 20° ESE
COSMO-SKYMED 1 3.1 17:29:29 10° NNE 17:33:49 63° WNW 17:38:08 10° SSW
Cosmos 2227 Rocket 2.4 17:29:21 10° NW 17:34:56 55° NE 17:38:17 24° ESE
Cosmos 1470 Rocket 3.4 17:32:12 10° S 17:36:34 72° E 17:41:00 10° NNE
GP-B 4.2 17:36:49 24° ENE 17:36:56 24° ENE 17:40:29 10° NNE
SL-24 DEB 4.4 17:33:09 10° SSE 17:37:41 50° ENE 17:42:12 10° N
Cosmos 2082 4.2 17:32:09 10° NW 17:37:41 46° NNE 17:40:48 24° E
Cosmos 1943 Rocket 2.1 17:32:24 10° SSW 17:37:54 63° ESE 17:43:22 10° NE
Resurs 01 Rocket 2.1 17:37:57 26° ESE 17:39:58 42° ENE 17:44:10 10° N
SL-08 RB Rocket 3.6 17:36:16 12° SSE 17:40:21 65° ENE 17:44:49 10° NNW
Meteor 1-4 Rocket 4.3 17:37:50 10° N 17:40:10 19° NE 17:40:10 19° NE
Cosmos 1515 3.8 17:38:08 10° N 17:41:53 52° ENE 17:43:32 29° SE
Genesis I 3.3 17:41:08 10° WNW 17:45:04 73° SSW 17:46:50 30° SE
NOSS 3-1 (C) 3.6 17:41:34 10° SW 17:47:15 56° SE 17:52:06 19° ENE
CZ-2C R/B 3.3 17:41:45 10° SSE 17:47:34 88° ENE 17:53:14 10° NNW
CZ-4 R/B 4.1 17:44:45 10° SW 17:48:05 23° W 17:51:23 10° NW
Meteor 1-19 Rocket 4.3 17:44:45 10° NNW 17:50:43 89° ENE 17:56:28 10° SSE
NOSS 5 (C) 4.4 17:48:29 10° W 17:51:32 58° N 17:52:11 44° NE
Cosmos 405 3.4 17:48:06 10° NNW 17:51:38 62° WSW 17:55:08 10° S
Cosmos 1340 2.5 17:48:04 10° SSW 17:51:50 85° ESE 17:55:39 10° NNE
Cosmos 1703 Rocket 3.9 17:47:28 10° NNW 17:51:54 67° W 17:56:20 10° S
Okean 1-7 3.2 17:48:39 10° NNW 17:52:57 73° W 17:57:17 10° S
Meteor 2-4 Rocket 3.8 17:49:08 10° NNW 17:55:00 71° ENE 18:00:03 15° SSE
ADEOS Rocket 3.6 17:48:03 10° NNE 17:55:48 84° ESE 18:03:37 10° SSW
Cosmos 372 Rocket 4.0 17:51:53 10° NNW 17:57:11 70° NE 17:59:51 29° SE
Cosmos 2219 3.2 17:51:40 10° NW 17:57:28 80° NE 18:00:45 27° SE
Cosmos 2298 Rocket 4.0 17:52:07 10° NNW 17:57:29 70° NE 18:00:13 29° SE
Cosmos 921 Rocket 3.2 17:53:03 10° SSW 17:57:35 79° WNW 18:02:08 10° NNE
COSMOS 2487 4.2 17:54:36 10° NW 17:57:44 31° WSW 18:00:49 10° S
Cosmos 44 Rocket 4.2 17:53:46 10° WNW 17:58:14 43° SW 18:01:43 16° SSE
SPOT 3 Rocket 3.5 17:55:45 10° SSE 18:00:59 90° E 18:06:16 10° NNW
OPS 6432 3.9 17:58:04 10° WNW 18:00:59 81° NNE 18:01:11 74° ENE
SeaSat 1 4.1 17:58:34 10° NE 18:02:39 28° NNW 18:06:48 10° WNW
FREGAT/IRIS 3.7 18:01:43 15° SSW 18:03:42 40° W 18:06:20 10° NNW
SJ 16-02 2.1 17:59:47 10° NW 18:04:06 52° WSW 18:08:07 12° S
Orbus 7S? 4.1 17:58:51 10° SW 18:04:11 36° SSE 18:04:40 34° SSE
Meteor 1-25 Rocket 4.1 18:00:29 10° S 18:06:07 70° ESE 18:11:43 10° NNE
Cosmos 1898 Rocket 4.2 18:01:15 10° NW 18:06:16 51° WSW 18:11:16 10° S
Cosmos 1869 Rocket 3.7 18:06:23 23° SSE 18:08:53 50° E 18:13:07 10° NNE
MetOp-B 4.3 18:06:54 34° ESE 18:08:55 52° ENE 18:14:08 10° NNW
Nadezhda 4 Rocket 4.0 18:04:30 10° NNW 18:10:50 85° WSW 18:17:09 10° S
Cosmos 1656 Rocket 3.8 18:05:39 10° SSW 18:11:00 50° ESE 18:15:17 16° NE
SPOT 5 4.0 18:11:03 29° ENE 18:11:44 30° NE 18:16:07 10° N
Meteor 1-22 4.5 18:08:30 10° S 18:13:51 81° ESE 18:19:17 10° NNE
Aureole 2 Rocket 2.5 18:12:06 10° SW 18:14:20 51° W 18:14:20 51° W
ERS-1 Rocket 3.7 18:14:48 33° ENE 18:15:24 34° NE 18:19:56 10° N
USA 186 2.9 18:15:03 27° SW 18:15:45 33° W 18:18:13 10° NNW
Cosmos 2150 Rocket 4.0 18:10:36 10° NNW 18:16:00 81° NE 18:18:19 36° SE
Cosmos 2297 4.3 18:11:37 10° WSW 18:17:11 56° NW 18:22:46 10° NE
Cosmos 2026 Rocket 3.9 18:11:23 10° NNW 18:17:37 64° ENE 18:20:41 30° SE
Cosmos 1844 Rocket 4.1 18:13:28 10° WNW 18:18:28 31° N 18:21:47 18° NE
Cosmos 1464 Rocket 3.9 18:12:06 10° S 18:18:29 79° E 18:24:54 10° NNE
Meteor 1-13 Rocket 4.2 18:12:32 10° NNW 18:18:31 76° ENE 18:21:46 28° SSE
Cosmos 389 Rocket 3.0 18:15:03 10° N 18:18:07 47° NE 18:18:07 47° NE
SJ-6B 3.6 18:16:53 13° S 18:20:07 49° W 18:23:51 10° NNW
NOSS 2-3 (E) 4.2 18:16:05 10° SSW 18:20:32 47° SE 18:21:10 44° ESE
Cosmos 2263 Rocket 3.1 18:15:48 10° NW 18:21:05 37° NNE 18:23:07 29° ENE
Cosmos 1602 3.6 18:22:04 65° ENE 18:22:04 65° ENE 18:25:41 10° NNE
USA 234 3.6 18:19:11 30° SE 18:22:21 56° SSW 18:28:48 10° W
Cosmos 2369 Rocket 2.1 18:18:04 10° SW 18:23:47 88° SE 18:29:33 10° NE
IGS 5A 4.3 18:24:51 34° NE 18:24:51 34° NE 18:28:09 10° N
NOSS 3-2 (A) 4.0 18:19:06 10° WNW 18:26:03 71° SW 18:30:13 30° SE
Cosmos 1378 Rocket 3.9 18:22:56 10° N 18:26:51 46° NE 18:26:51 46° NE
NOSS 3-2 (C) 3.9 18:20:16 10° WNW 18:27:13 81° SSW 18:30:57 35° SE
Cosmos 1655 Rocket 4.4 18:21:44 10° N 18:27:54 46° ENE 18:29:24 39° E
CZ-2C R/B 3.4 18:25:29 10° NNE 18:29:38 35° ENE 18:29:38 35° ENE
Cosmos 2221 Rocket 3.8 18:27:29 10° NNW 18:32:03 73° WSW 18:34:13 30° S
Cosmos 1125 Rocket 3.5 18:27:55 10° NNW 18:33:16 72° NE 18:34:31 52° ESE
MetOp-A 4.4 18:29:56 18° S 18:34:02 70° WSW 18:39:26 10° NNW
Cosmos 1933 Rocket 4.2 18:30:26 10° SSW 18:34:46 55° WNW 18:39:06 10° N
NOSS 2-3 (D) 4.0 18:30:57 10° SW 18:35:27 52° SE 18:35:30 52° SE
USA 229 DEB 3.6 18:31:10 10° SW 18:37:54 80° SSE 18:41:39 30° ENE
USA 229 3.6 18:31:17 10° SW 18:38:00 79° SSE 18:41:43 31° ENE
Cosmos 2034 Rocket 3.8 18:32:08 10° S 18:38:18 79° E 18:44:29 10° NNE
SPOT 1/Viking Rocket 3.7 18:39:10 50° E 18:39:36 52° ENE 18:44:38 10° NNW
Terra 2.8 18:43:44 32° NE 18:43:44 32° NE 18:47:31 10° N
Cosmos 1346 Rocket 3.9 18:39:49 10° SW 18:43:39 45° WNW 18:47:29 10° N
NOSS 3-1 (A) 3.4 18:38:58 10° SW 18:44:52 70° SE 18:47:34 38° ENE
ARGOS 4.4 18:42:03 10° SSW 18:47:10 41° W 18:52:20 10° NNW
Cosmos 2263 4.2 18:43:13 10° SW 18:49:00 87° NW 18:54:05 14° NE
Cosmos 1066 Rocket 4.2 18:43:45 10° NNW 18:49:29 70° ENE 18:50:34 56° SE
CENTAUR R/B 3.0 18:43:22 10° WNW 18:50:49 79° SSW 18:54:06 41° SE
Cosmos 1092 Rocket 4.2 18:48:00 10° NNW 18:54:19 71° W 18:58:49 20° S
Meteor 1-23 Rocket 4.1 18:49:15 10° NNW 18:54:55 79° ENE 18:56:00 59° SE
Cosmos 1428 Rocket 4.4 18:49:49 10° NNW 18:55:59 90° W 18:58:16 42° SSE
Cosmos 1674 Rocket 3.5 18:52:43 10° NNW 18:57:14 87° WSW 18:57:14 87° WSW
Okean 3 4.3 18:53:37 10° NNW 18:57:44 49° W 18:58:56 37° SW
H-2A R/B 3.8 18:53:30 10° SSW 18:58:21 32° W 19:03:15 10° NNW
Cosmos 2297 Rocket 2.4 18:55:09 10° NW 19:00:47 64° WSW 19:02:16 47° S
Spot 2 Rocket 3.4 19:00:47 66° SSE 19:01:32 86° WSW 19:06:41 10° NNW
ATLAS 3B R/B 2.6 18:55:12 10° WNW 19:01:54 87° SSW 19:03:34 55° ESE
Cosmos 2279 Rocket 4.5 19:07:01 42° ENE 19:07:01 42° ENE 19:11:46 10° NNE
Cosmos 1634 Rocket 3.9 19:05:02 58° SE 19:05:58 65° E 19:12:15 10° NNE
CZ-2C R/B 3.7 19:01:43 10° NNE 19:06:20 81° WNW 19:07:15 57° SW
Meteor 1-5 Rocket 4.2 19:07:12 64° ENE 19:07:12 64° ENE 19:12:26 10° NNE
Cosmos 1437 Rocket 4.5 19:04:13 10° N 19:06:16 26° N 19:06:16 26° N
NOSS 2-3 (C) 4.0 19:04:50 10° SW 19:09:00 64° SSW 19:09:00 64° SSW
Lacrosse 5 rocket 2.7 19:05:43 10° W 19:09:19 35° SW 19:09:19 35° SW
Lacrosse 4 Rocket 2.6 19:08:24 10° W 19:12:32 39° NNW 19:13:16 36° N
Cosmos 2278 Rocket 3.6 19:07:44 10° WNW 19:12:48 32° N 19:15:43 21° NE
GP-B 3.3 19:14:14 69° NW 19:14:14 69° NW 19:18:20 10° N
Meteor 1-4 Rocket 4.2 19:12:24 10° NNW 19:14:24 31° NNW 19:14:24 31° NNW
Resurs 01 Rocket 2.6 19:15:30 37° SW 19:16:30 43° W 19:20:46 10° NNW
Cosmos 1867 3.7 19:11:12 10° WNW 19:16:40 64° NNE 19:17:07 61° NE
Cosmos 2227 Rocket 2.6 19:13:36 10° NW 19:19:08 56° WSW 19:20:07 49° SSW
Timation 1 Rocket 4.4 19:15:13 10° NW 19:21:14 63° NE 19:21:41 61° ENE
Cosmos 1943 Rocket 2.9 19:16:29 10° WSW 19:21:53 50° NNW 19:25:50 18° NE
Cosmos 2082 3.7 19:16:28 10° NW 19:22:12 74° SW 19:22:41 69° SSW
USA 238 DEB 4.5 19:17:27 10° WNW 19:24:08 46° SW 19:26:19 36° S
USA 238 4.5 19:17:33 10° WNW 19:24:13 46° SW 19:26:24 36° S
NOSS 3-1 (C) 3.6 19:31:50 10° WSW 19:38:00 81° NNW 19:39:31 57° ENE
SeaSat 1 4.0 19:38:20 25° NNE 19:39:13 26° N 19:43:17 10° NW
Meteor 1-11 Rocket 4.1 19:41:37 53° NNE 19:41:37 53° NNE 19:45:47 10° NNE
Cosmos 2292 Rocket 4.5 19:35:16 10° NNW 19:40:49 72° ENE 19:40:49 72° ENE
Landsat 7 4.3 19:41:36 58° WNW 19:41:36 58° WNW 19:45:43 10° NNW
Cosmos 2219 4.5 19:36:09 10° NW 19:41:15 33° WSW 19:42:43 29° SW
SJ 16-02 4.3 19:40:18 10° WNW 19:41:43 11° W 19:43:07 10° WSW
Cosmos 468 Rocket 4.5 19:40:16 10° SW 19:48:43 25° NNE 19:50:55 10° NNE
Cosmos 2227 4.3 19:40:45 10° NW 19:45:52 67° N 19:45:52 67° N
SPOT 5 3.4 19:50:17 63° NNW 19:50:17 63° NNW 19:54:35 10° NNW
ERS-1 Rocket 3.5 19:54:47 57° NW 19:54:47 57° NW 19:59:02 10° NNW
Cosmos 1656 Rocket 4.1 19:49:06 10° WSW 19:54:37 59° NW 19:56:47 36° NNE
DMSP B5D2-2 4.4 19:50:41 10° NNE 19:55:52 62° WNW 19:55:52 62° WNW
Cosmos 1844 Rocket 3.6 19:58:20 10° NW 20:03:26 41° NNE 20:03:26 41° NNE
Cosmos 2263 Rocket 2.6 20:00:04 10° NW 20:04:48 61° NNW 20:04:48 61° NNW
USA 234 4.2 20:06:31 33° SW 20:06:31 33° SW 20:12:09 10° W
Cosmos 2266 Rocket 4.0 20:00:17 10° NNW 20:06:24 77° WNW 20:06:24 77° WNW
Cosmos 2369 Rocket 3.3 20:03:01 10° W 20:08:24 41° NNW 20:11:31 23° NNE
CZ-2C R/B 3.1 20:05:48 10° NNE 20:11:10 60° NW 20:11:10 60° NW
Cosmos 1655 Rocket 4.4 20:07:33 10° NNW 20:13:50 57° W 20:14:22 56° WSW
Terra 3.2 20:22:37 37° NW 20:22:37 37° NW 20:25:35 10° NNW
USA 229 DEB 3.8 20:22:15 10° W 20:29:06 75° N 20:29:06 75° N
USA 229 3.8 20:22:21 10° W 20:29:10 75° N 20:29:10 75° N
NOSS 3-1 (A) 3.8 20:29:37 10° W 20:35:03 67° WNW 20:35:03 67° WNW
CENTAUR R/B 3.8 20:34:01 10° WNW 20:41:06 40° SW 20:41:17 40° SW
Cosmos 2297 Rocket 4.2 20:40:04 10° WNW 20:43:53 19° W 20:44:05 19° WSW
Lacrosse 4 Rocket 4.0 20:48:00 10° WNW 20:49:35 20° NW 20:49:35 20° NW
ATLAS 3B R/B 3.6 20:45:58 10° WNW 20:50:49 37° WSW 20:50:49 37° WSW
Cosmos 2278 Rocket 3.5 20:53:03 10° NW 20:57:34 35° N 20:57:34 35° N
SL-16 R/B 4.3 20:57:55 22° NE 20:58:44 22° NNE 21:03:22 10° NNW
Cosmos 2227 Rocket 4.4 20:58:48 10° WNW 21:01:58 16° W 21:01:58 16° W
Cosmos 1943 Rocket 3.7 21:01:51 10° WNW 21:06:47 31° N 21:07:22 30° N
SeaSat 1 4.3 21:18:06 27° NNW 21:18:06 27° NNW 21:20:38 10° NW
NOSS 3-1 (C) 4.5 21:22:47 10° WNW 21:26:56 44° WNW 21:26:56 44° WNW
Cosmos 1844 Rocket 4.4 21:42:28 10° NW 21:45:05 29° NW 21:45:05 29° NW
Cosmos 2263 Rocket 4.2 21:44:17 10° NW 21:46:30 22° WNW 21:46:30 22° WNW
Cosmos 2369 Rocket 3.8 21:48:42 10° WNW 21:53:20 31° N 21:53:20 31° N
Mayak 1.9 21:54:00 10° N 21:54:14 11° N 21:54:14 11° N
SL-16 R/B 3.6 22:43:01 40° N 22:43:01 40° N 22:47:18 10° NNW
Cosmos 2278 Rocket 4.2 22:37:30 10° NW 22:39:24 22° NW 22:39:24 22° NW
Cosmos 2322 Rocket 4.3 22:48:57 20° NE 22:48:57 20° NE 22:50:36 10° NE
Cosmos 1943 Rocket 4.3 22:46:49 10° NW 22:48:55 21° NNW 22:48:55 21° NNW
ATLAS 2AS CENTAUR R/B 3.8 23:05:14 43° ENE 23:05:14 43° ENE 23:10:03 10° ENE
Cosmos 1697 Rocket 4.4 23:11:59 28° NNE 23:11:59 28° NNE 23:14:53 10° NE
Cosmos 2360 Rocket 4.2 23:14:11 22° NE 23:14:11 22° NE 23:16:07 10° NE
Cosmos 1980 Rocket 3.9 23:20:17 28° NNE 23:20:17 28° NNE 23:23:03 10° NE
Resurs 1-4 Rocket 4.3 23:14:37 10° NNE 23:16:49 20° NE 23:16:49 20° NE
Mayak 1.9 23:30:34 10° N 23:30:49 11° NNW 23:30:49 11° NNW
Cosmos 2369 Rocket 4.4 23:33:39 10° NW 23:35:09 18° NW 23:35:09 18° NW
Cosmos 2344 3.8 23:48:05 75° ENE 23:48:05 75° ENE 23:56:47 10° ENE
SL-16 R/B 3.7 23:50:56 33° NNE 23:50:56 33° NNE 23:54:04 10° NE
